| time (UTC) | temp C | wind direction | speed KPH | gust KPH | rain 1hr cm | rain 24hr cm | rain mn cm | humidity % | barometer mb |
| 20260508175659 | 25 | 200 | 1.6 | 1.6 | 0.00 | 0.00 | 0.00 | 66 | 1012.3 |
| 20260508172658 | 25 | 132 | 4.8 | 4.8 | 0.00 | 0.00 | 0.00 | 63 | 1012.6 |
| 20260508165656 | 24 | 226 | 3.2 | 3.2 | 0.00 | 0.00 | 0.00 | 66 | 1013.5 |
| 20260508162654 | 23 | 166 | 1.6 | 3.2 | 0.00 | 0.00 | 0.00 | 67 | 1014.1 |
| 20260508155651 | 22 | 149 | 8.0 | 9.7 | 0.00 | 0.00 | 0.00 | 69 | 1014.5 |
| 20260508152649 | 21 | 169 | 4.8 | 4.8 | 0.00 | 0.00 | 0.00 | 71 | 1015.0 |
| 20260508145646 | 20 | 151 | 3.2 | 3.2 | 0.00 | 0.00 | 0.00 | 71 | 1015.1 |
| 20260508142645 | 20 | 159 | 4.8 | 8.0 | 0.00 | 0.00 | 0.00 | 73 | 1015.0 |
| 20260508135643 | 20 | 185 | 4.8 | 4.8 | 0.00 | 0.00 | 0.00 | 73 | 1015.4 |
| 20260508132642 | 18 | 113 | 0.0 | 1.6 | 0.00 | 0.00 | 0.00 | 77 | 1014.9 |
| 20260508125643 | 16 | 68 | 0.0 | 0.0 | 0.00 | 0.00 | 0.00 | 90 | 1015.5 |
| 20260508122638 | 15 | 232 | 0.0 | 0.0 | 0.00 | 0.00 | 0.00 | 94 | 1015.6 |
| 20260508115636 | 15 | 295 | 0.0 | 0.0 | 0.00 | 0.00 | 0.00 | 94 | 1015.5 |
| 20260508112634 | 15 | 334 | 0.0 | 0.0 | 0.00 | 0.00 | 0.00 | 93 | 1015.4 |
| 20260508105631 | 15 | 280 | 0.0 | 0.0 | 0.00 | 0.00 | 0.00 | 94 | 1015.7 |
| 20260508102626 | 15 | 190 | 0.0 | 0.0 | 0.00 | 0.00 | 0.00 | 92 | 1014.4 |
| 20260508095627 | 15 | 179 | 1.6 | 1.6 | 0.00 | 0.00 | 0.00 | 92 | 1014.6 |
| 20260508092621 | 16 | 197 | 0.0 | 0.0 | 0.00 | 0.00 | 0.00 | 91 | 1014.8 |
| 20260508085616 | 16 | 245 | 0.0 | 0.0 | 0.00 | 0.00 | 0.00 | 91 | 1015.0 |
| 20260508082614 | 16 | 2 | 0.0 | 0.0 | 0.00 | 0.00 | 0.00 | 92 | 1015.8 |
| 20260508075615 | 16 | 4 | 0.0 | 0.0 | 0.00 | 0.00 | 0.00 | 91 | 1016.1 |
| 20260508072614 | 16 | 140 | 0.0 | 0.0 | 0.00 | 0.00 | 0.00 | 91 | 1015.6 |
| 20260508065612 | 16 | 140 | 0.0 | 0.0 | 0.00 | 0.00 | 0.00 | 90 | 1016.0 |
| 20260508062609 | 16 | 177 | 0.0 | 0.0 | 0.00 | 0.00 | 0.00 | 90 | 1016.2 |
| 20260508055607 | 15 | 176 | 0.0 | 0.0 | 0.00 | 0.00 | 0.00 | 90 | 1016.0 |
| 20260508052602 | 15 | 176 | 0.0 | 0.0 | 0.00 | 0.00 | 0.00 | 89 | 1016.4 |
| 20260508045557 | 16 | 176 | 0.0 | 0.0 | 0.00 | 0.00 | 0.00 | 88 | 1016.1 |
| 20260508042556 | 16 | 177 | 0.0 | 0.0 | 0.00 | 0.00 | 0.00 | 86 | 1016.1 |
| 20260508035555 | 16 | 176 | 0.0 | 0.0 | 0.00 | 0.00 | 0.00 | 85 | 1016.1 |
| 20260508032549 | 16 | 176 | 0.0 | 0.0 | 0.00 | 0.00 | 0.00 | 84 | 1016.0 |
| 20260508025547 | 17 | 177 | 0.0 | 0.0 | 0.00 | 0.00 | 0.00 | 82 | 1016.0 |
| 20260508022545 | 17 | 176 | 0.0 | 0.0 | 0.00 | 0.00 | 0.00 | 80 | 1015.9 |
| 20260508015544 | 17 | 176 | 0.0 | 0.0 | 0.00 | 0.00 | 0.00 | 77 | 1015.3 |
| 20260508012542 | 18 | 177 | 0.0 | 0.0 | 0.00 | 0.00 | 0.00 | 74 | 1015.8 |
| 20260508005537 | 19 | 177 | 0.0 | 0.0 | 0.00 | 0.00 | 0.00 | 71 | 1015.3 |
| 20260508002534 | 20 | 146 | 1.6 | 1.6 | 0.00 | 0.00 | 0.00 | 68 | 1015.5 |
| 20260507235531 | 20 | 189 | 1.6 | 1.6 | 0.00 | 0.00 | 0.00 | 67 | 1015.7 |
| 20260507232530 | 20 | 146 | 3.2 | 4.8 | 0.00 | 0.00 | 0.00 | 69 | 1015.2 |
| 20260507225527 | 20 | 185 | 0.0 | 1.6 | 0.00 | 0.00 | 0.00 | 68 | 1015.7 |
| 20260507222524 | 22 | 231 | 0.0 | 0.0 | 0.00 | 0.00 | 0.00 | 59 | 1015.9 |
| 20260507215522 | 22 | 63 | 0.0 | 1.6 | 0.00 | 0.00 | 0.00 | 58 | 1015.9 |
| 20260507212520 | 22 | 152 | 0.0 | 1.6 | 0.00 | 0.00 | 0.00 | 59 | 1016.5 |
| 20260507205518 | 22 | 46 | 3.2 | 4.8 | 0.00 | 0.00 | 0.00 | 58 | 1016.5 |
| 20260507202515 | 23 | 75 | 4.8 | 4.8 | 0.00 | 0.00 | 0.00 | 56 | 1016.5 |
| 20260507195510 | 23 | 175 | 4.8 | 8.0 | 0.00 | 0.00 | 0.00 | 56 | 1016.9 |
| 20260507192507 | 23 | 330 | 8.0 | 9.7 | 0.00 | 0.00 | 0.00 | 53 | 1017.5 |
| 20260507185508 | 22 | 69 | 8.0 | 9.7 | 0.00 | 0.00 | 0.00 | 55 | 1018.0 |
| 20260507182507 | 22 | 335 | 4.8 | 4.8 | 0.00 | 0.00 | 0.00 | 54 | 1017.9 |